Le nostre stazioni meteo in Italia

Pubblicità
Il mio iltempo24.it
Vipiteno, Italia (16014): Temperatura & dewpoint: 13.06.2019 01:00:00 - 19.06.2019 01:00:00 (CEST)Vipiteno, Italia (16014): velocità del vento: 13.06.2019 01:00:00 - 19.06.2019 01:00:00 (CEST)Vipiteno, Italia (16014): direzione del vento: 13.06.2019 01:00:00 - 19.06.2019 01:00:00 (CEST)
Data & Tempo tt [°C] td [°C] ff [km/h] ff [kn] dd
19.06.2019 01:00:00 15,2 13,5 4 2 O
19.06.2019 00:00:00 - - 2 1 S
18.06.2019 23:00:00 48,9 46,9 4 2 NO
18.06.2019 22:00:00 17,5 - 5 3 SE
18.06.2019 21:00:00 16,3 13,3 5 3 S
18.06.2019 20:00:00 - - 11 6 SE
18.06.2019 19:00:00 - - 21 11 E
18.06.2019 18:00:00 26,3 12,7 21 11 E
18.06.2019 17:00:00 27,4 11,4 4 2 E
18.06.2019 16:00:00 - - - - -
18.06.2019 15:00:00 27,4 12,9 5 3 N
18.06.2019 14:00:00 26,8 14,5 4 2 N
18.06.2019 13:00:00 24,9 12,5 4 2 E
18.06.2019 12:00:00 22,7 14,7 9 5 SE
18.06.2019 11:00:00 20,6 15,3 5 3 E
18.06.2019 10:00:00 18,5 14,7 2 1 NO
18.06.2019 09:00:00 16,7 15,0 4 2 E
18.06.2019 08:00:00 14,6 12,9 2 1 NNE
18.06.2019 07:00:00 13,1 11,5 2 1 NNE
18.06.2019 06:00:00 12,7 11,1 0 0 N
18.06.2019 05:00:00 12,0 10,4 0 0 N
18.06.2019 04:00:00 12,6 11,0 2 1 O
18.06.2019 03:00:00 13,9 12,3 4 2 SE
18.06.2019 02:00:00 14,5 12,8 2 1 SSE
18.06.2019 01:00:00 - - - - -
18.06.2019 00:00:00 - - - - -
17.06.2019 23:00:00 15,1 13,2 4 2 SSE
17.06.2019 22:00:00 - - - - -
17.06.2019 21:00:00 - - - - -
17.06.2019 20:00:00 20,3 12,2 21 11 E
17.06.2019 19:00:00 - - - - -
17.06.2019 18:00:00 - - - - -
17.06.2019 17:00:00 26,1 11,4 15 8 SE
17.06.2019 16:00:00 25,4 12,2 8 4 ESE
17.06.2019 15:00:00 25,7 11,8 5 3 SE
17.06.2019 14:00:00 25,0 12,5 5 3 E
17.06.2019 13:00:00 23,9 12,8 2 1 N
17.06.2019 12:00:00 22,7 13,9 4 2 SE
17.06.2019 11:00:00 20,8 14,1 2 1 NE
17.06.2019 10:00:00 18,5 13,3 2 1 N
17.06.2019 09:00:00 16,3 13,3 4 2 N
17.06.2019 08:00:00 12,9 11,3 4 2 N
17.06.2019 07:00:00 10,1 8,2 0 0 N
17.06.2019 06:00:00 10,2 8,1 5 3 ONO
17.06.2019 05:00:00 10,0 7,4 2 1 O
17.06.2019 04:00:00 11,9 8,5 5 3 OSO
17.06.2019 03:00:00 12,7 9,1 9 5 O
17.06.2019 02:00:00 13,3 9,3 9 5 O
17.06.2019 01:00:00 14,4 9,4 15 8 ONO
17.06.2019 00:00:00 15,7 9,5 15 8 ONO
16.06.2019 23:00:00 15,9 9,7 16 9 NO
16.06.2019 22:00:00 16,4 10,0 22 12 N
16.06.2019 21:00:00 16,8 10,1 5 3 SSO
16.06.2019 20:00:00 17,4 10,5 11 6 NO
16.06.2019 19:00:00 18,1 11,8 9 5 SSO
16.06.2019 18:00:00 - - - - -
16.06.2019 17:00:00 19,5 10,4 15 8 S
16.06.2019 16:00:00 20,6 10,9 24 13 O
16.06.2019 15:00:00 20,5 11,6 29 16 NNO
16.06.2019 14:00:00 19,9 10,3 34 18 NNO
16.06.2019 13:00:00 19,7 11,2 24 13 NNO
16.06.2019 12:00:00 19,3 10,8 28 15 ONO
16.06.2019 11:00:00 18,8 10,3 24 13 ONO
16.06.2019 10:00:00 18,4 11,4 16 9 N
16.06.2019 09:00:00 16,7 10,7 18 10 ONO
16.06.2019 08:00:00 15,7 10,4 22 12 NO
16.06.2019 07:00:00 15,3 10,7 16 9 NO
16.06.2019 06:00:00 13,8 12,2 8 4 O
16.06.2019 05:00:00 13,0 11,5 8 4 SSO
16.06.2019 04:00:00 11,3 9,7 4 2 ENE
16.06.2019 03:00:00 11,8 10,2 2 1 N
16.06.2019 02:00:00 11,9 10,3 2 1 E
16.06.2019 01:00:00 12,8 11,2 2 1 NNO
16.06.2019 00:00:00 - - - - -
15.06.2019 23:00:00 - - - - -
15.06.2019 22:00:00 - - - - -
15.06.2019 21:00:00 - - - - -
15.06.2019 20:00:00 - - - - -
15.06.2019 19:00:00 - - - - -
15.06.2019 18:00:00 - - - - -
15.06.2019 17:00:00 - - - - -
15.06.2019 16:00:00 - - - - -
15.06.2019 15:00:00 - - - - -
15.06.2019 14:00:00 - - - - -
15.06.2019 13:00:00 24,8 13,3 4 2 OSO
15.06.2019 12:00:00 23,0 16,0 5 3 E
15.06.2019 11:00:00 20,2 15,5 4 2 SSO
15.06.2019 10:00:00 19,3 15,7 4 2 ESE
15.06.2019 09:00:00 17,7 15,8 2 1 NNE
15.06.2019 08:00:00 16,3 14,6 4 2 NO
15.06.2019 07:00:00 14,7 13,0 0 0 N
15.06.2019 06:00:00 13,6 11,6 2 1 NNE
15.06.2019 05:00:00 14,7 12,5 4 2 SO
15.06.2019 04:00:00 15,2 12,3 5 3 S
15.06.2019 03:00:00 16,3 11,8 16 9 ONO
15.06.2019 02:00:00 - - - - -
15.06.2019 01:00:00 19,7 8,0 0 0 N
15.06.2019 00:00:00 22,5 7,4 8 4 SSE
14.06.2019 23:00:00 24,6 7,2 13 7 SE
14.06.2019 22:00:00 25,4 7,5 16 9 SE
14.06.2019 21:00:00 26,1 7,6 8 4 SE
14.06.2019 20:00:00 27,5 8,4 8 4 SE
14.06.2019 19:00:00 28,5 8,2 9 5 E
14.06.2019 18:00:00 28,1 7,4 8 4 ONO
14.06.2019 17:00:00 29,2 7,2 11 6 SO
14.06.2019 16:00:00 29,2 8,3 15 8 SSO
14.06.2019 15:00:00 - - - - -
14.06.2019 14:00:00 - - - - -
14.06.2019 13:00:00 - - - - -
14.06.2019 12:00:00 23,9 10,9 5 3 SSE
14.06.2019 11:00:00 21,4 10,5 0 0 N
14.06.2019 10:00:00 18,5 10,0 2 1 NE
14.06.2019 09:00:00 15,9 11,2 2 1 N
14.06.2019 08:00:00 - - - - -
14.06.2019 07:00:00 - - - - -
14.06.2019 06:00:00 - - - - -
14.06.2019 05:00:00 - - - - -
14.06.2019 04:00:00 - - - - -
14.06.2019 03:00:00 - - - - -
14.06.2019 02:00:00 - - - - -
14.06.2019 01:00:00 - - - - -
14.06.2019 00:00:00 - - - - -
13.06.2019 23:00:00 - - - - -
13.06.2019 22:00:00 - - - - -
13.06.2019 21:00:00 - - - - -
13.06.2019 20:00:00 - - - - -
13.06.2019 19:00:00 - - - - -
13.06.2019 18:00:00 - - - - -
13.06.2019 17:00:00 - - - - -
13.06.2019 16:00:00 25,6 2,9 13 7 SSO
13.06.2019 15:00:00 - - - - -
13.06.2019 14:00:00 - - - - -
13.06.2019 13:00:00 - - - - -
13.06.2019 12:00:00 - - - - -
13.06.2019 11:00:00 - - - - -
13.06.2019 10:00:00 - - - - -
13.06.2019 09:00:00 - - - - -
13.06.2019 08:00:00 - - - - -
13.06.2019 07:00:00 - - - - -
13.06.2019 06:00:00 - - - - -
13.06.2019 05:00:00 - - - - -
13.06.2019 04:00:00 - - - - -
13.06.2019 03:00:00 - - - - -
13.06.2019 02:00:00 - - - - -
13.06.2019 01:00:00 - - - - -

tt = Temperatura
td = dewpoint
ff = velocità del vento
dd = direzione del vento

Stazioni seguenti

WeatherPro
AMSI
MeteoEarth